STARLINK-38278, 100620

Orbit data source: Space-Track

STARLINK-38278, 100620 is a payload satellite owned by SpaceX/Seattle (US) in LEO that was launched on Sun, 06 Sep 2026 UTC launched from the Air Force Western Test Range (AFWTR). Payload-class satellites include a variety of spacecraft equipped with specific instruments for various scientific and technological missions. These include communications satellites like Starlink; space stations such as the ISS; scientific satellites like the Hubble; Earth observation satellites from companies like Planet Labs, Umbra, and HawkEye 360; GPS; miniature CubeSats for education and research; and military/defense satellites.

Not visible in the next 10 days
Identifier
100620, 2026-204F
Orbit
LEO
Country
Flag of USUS
Related business
Manufacturer
SpaceX/Seattle
Mission
Operational spacecraft
Bus & Motor
STARLINK V2MO, Unknown motor
Mass
575 kg wet, ~530 kg dry
Launch date (UTC)
2026-09-06 (5 days ago)
Launch vehicle
Unknown
Launch site
Air Force Western Test Range (AFWTR)
Object type
Payload
Rocket body
Debris
Shape & HBR
BOX + PAN, 17.7 m
Radar Cross Section
RCS unknown

Expand to show TLE details & history
Last TLE update: 12 hours ago

TLE from 12 hours ago
0 STARLINK-38278
1 A0620U 26204F   26253.93816164  .00102557  84573-5  17070-3 0  9998
2 A0620  69.9972 265.1241 0007530 243.1448 116.8995 16.02880681   700
Epoch: 2026-09-10T22:30Z
TLE epoch observation values (Epoch: 2026-09-10T22:30:57.165Z)
Latitude
-0.00004°
Longitude
-62.5828°
Altitude
271.248 km
Speed
7.744 km/s
True Right ascension
17h 40m 29s
True Declination
0° 00' 00"
Sunlit
Object was in daylight at epoch
Visualization orbit readout
Latitude
Unknown
Longitude
Unknown
Altitude
Unknown
Speed
Unknown
Apparent Right ascension
Unknown
Apparent Declination
Unknown
Sunlit
N/A
Visualization observer readout
Local Sidereal Time
02:29:04
Azimuth
Unknown
Elevation
Unknown
Doppler factor
Unknown
Orbital elements
Apogee altitude
269.301 km
Perigee altitude
259.298 km
Semi-major axis
6,642.437 km
Eccentricity
0.00075
Inclination
69.9972°
RAAN
265.1241°
Arg. of periapsis
243.1448°
True anomaly
116.97642°
Mean anomaly
116.8995°
Eccentric anomaly
116.93796°
Mean motion
4.00915 °/min
Orbital period
89.79 mins
BSTAR
0.0001707
Loading maneuver chart data...
Computing Atmospheric mass density...
Loading historical data...
Loading historical data...
Loading historical data...
Loading historical data...
Loading historical data...
Loading historical data...
Loading historical data...

Documentation

Showing up to 5 results
|